When you browse on this site, cookies collect data to enhance your experience and personalize the content and advertising you see.
Visit our Privacy Policy to learn more. By continuing to use the site, you agree to this use of cookies and data.
  • In United Kingdom
  • List of Countries
  • For 7 days
  • Water Temperature
  • Satellite Maps
  • Weather Map
  • Weather Widgets
  • user-avatar
    Login

    Hourly Weather Vivcharnya

    Today, 20 June, Thursday

    Time Temperature Precipitation Wind Pressure Humidity
    00:00 +20°C° 0 mm 2 mps 740 mmHg 89%
    01:00 +19°C° 0 mm 2 mps 740 mmHg 90%
    02:00 +19°C° 0 mm 2 mps 740 mmHg 90%
    03:00 +19°C° 0 mm 2 mps 740 mmHg 90%
    04:00 +19°C° 0 mm 2 mps 740 mmHg 91%
    05:00 +19°C° 0 mm 2 mps 740 mmHg 91%
    06:00 +20°C° 0 mm 2 mps 740 mmHg 87%
    07:00 +23°C° 0 mm 2 mps 740 mmHg 83%
    08:00 +24°C° 0 mm 2 mps 740 mmHg 79%
    09:00 +26°C° 0 mm 2 mps 740 mmHg 75%
    10:00 +27°C° 0 mm 2 mps 740 mmHg 70%
    11:00 +28°C° 0 mm 2 mps 740 mmHg 65%
    12:00 +28°C° 0 mm 2 mps 740 mmHg 64%
    13:00 +29°C° 0 mm 2 mps 740 mmHg 62%
    14:00 +29°C° 0 mm 2 mps 740 mmHg 60%
    15:00 +29°C° 0 mm 3 mps 739 mmHg 61%
    16:00 +29°C° 0 mm 3 mps 739 mmHg 63%
    17:00 +29°C° 0 mm 3 mps 739 mmHg 64%
    18:00 +27°C° 0 mm 3 mps 739 mmHg 69%
    19:00 +26°C° 0 mm 2 mps 739 mmHg 74%
    20:00 +24°C° 0 mm 2 mps 739 mmHg 79%
    21:00 +24°C° 0 mm 2 mps 739 mmHg 81%
    22:00 +23°C° 0 mm 2 mps 740 mmHg 82%
    23:00 +21°C° 0 mm 2 mps 740 mmHg 84%

    Tomorrow, 21 June, Friday

    Time Temperature Precipitation Wind Pressure Humidity
    00:00 +21°C° 0 mm 2 mps 740 mmHg 85%
    01:00 +21°C° 0 mm 2 mps 740 mmHg 86%
    02:00 +20°C° 0 mm 2 mps 740 mmHg 86%
    03:00 +20°C° 0 mm 2 mps 740 mmHg 87%
    04:00 +20°C° 0 mm 2 mps 740 mmHg 87%
    05:00 +20°C° 0 mm 2 mps 740 mmHg 88%
    06:00 +23°C° 0 mm 2 mps 740 mmHg 83%
    07:00 +24°C° 0 mm 2 mps 740 mmHg 79%
    08:00 +26°C° 0 mm 2 mps 741 mmHg 75%
    09:00 +27°C° 0.7 mm 3 mps 741 mmHg 71%
    10:00 +28°C° 0.7 mm 3 mps 741 mmHg 67%
    11:00 +29°C° 0.7 mm 3 mps 741 mmHg 63%
    12:00 +29°C° 1 mm 3 mps 741 mmHg 64%
    13:00 +29°C° 1 mm 3 mps 740 mmHg 64%
    14:00 +29°C° 1 mm 3 mps 740 mmHg 65%
    15:00 +29°C° 1.4 mm 3 mps 740 mmHg 68%
    16:00 +28°C° 1.4 mm 3 mps 740 mmHg 71%
    17:00 +28°C° 1.4 mm 3 mps 740 mmHg 74%
    18:00 +27°C° 0.3 mm 3 mps 740 mmHg 76%
    19:00 +25°C° 0.3 mm 2 mps 740 mmHg 79%
    20:00 +24°C° 0.3 mm 2 mps 740 mmHg 81%
    21:00 +23°C° 0.1 mm 2 mps 740 mmHg 82%
    22:00 +23°C° 0.1 mm 2 mps 740 mmHg 83%
    23:00 +21°C° 0.1 mm 2 mps 741 mmHg 84%

    Day after tomorrow, 22 June, Saturday

    Time Temperature Precipitation Wind Pressure Humidity
    00:00 +21°C° 0.1 mm 2 mps 741 mmHg 85%
    01:00 +21°C° 0.1 mm 2 mps 741 mmHg 86%
    02:00 +20°C° 0.1 mm 2 mps 741 mmHg 87%
    03:00 +20°C° 0 mm 2 mps 741 mmHg 87%
    04:00 +21°C° 0 mm 1 mps 741 mmHg 87%
    05:00 +21°C° 0 mm 1 mps 741 mmHg 87%
    06:00 +23°C° 0 mm 1 mps 741 mmHg 82%
    07:00 +24°C° 0 mm 2 mps 741 mmHg 77%
    08:00 +26°C° 0 mm 2 mps 741 mmHg 72%
    09:00 +27°C° 0.4 mm 2 mps 741 mmHg 67%
    10:00 +28°C° 0.4 mm 2 mps 741 mmHg 62%
    11:00 +30°C° 0.4 mm 2 mps 741 mmHg 58%
    12:00 +30°C° 0.2 mm 2 mps 741 mmHg 57%
    13:00 +30°C° 0.2 mm 2 mps 741 mmHg 56%
    14:00 +31°C° 0.2 mm 3 mps 741 mmHg 56%
    15:00 +30°C° 0.2 mm 3 mps 741 mmHg 59%
    16:00 +30°C° 0.2 mm 2 mps 740 mmHg 62%
    17:00 +30°C° 0.2 mm 2 mps 740 mmHg 64%
    18:00 +28°C° 0.5 mm 2 mps 740 mmHg 70%
    19:00 +26°C° 0.5 mm 2 mps 740 mmHg 75%
    20:00 +24°C° 0.5 mm 2 mps 740 mmHg 81%
    21:00 +23°C° 0.2 mm 2 mps 740 mmHg 81%
    22:00 +23°C° 0.2 mm 1 mps 741 mmHg 80%
    23:00 +22°C° 0.2 mm 1 mps 741 mmHg 80%

    23 June, Sunday

    Time Temperature Precipitation Wind Pressure Humidity
    00:00 +22°C° 0 mm 1 mps 740 mmHg 81%
    01:00 +20°C° 0 mm 2 mps 740 mmHg 82%
    02:00 +20°C° 0 mm 2 mps 740 mmHg 82%
    03:00 +20°C° 0 mm 2 mps 740 mmHg 83%
    04:00 +20°C° 0 mm 2 mps 740 mmHg 84%
    05:00 +20°C° 0 mm 2 mps 740 mmHg 85%
    06:00 +22°C° 0 mm 3 mps 741 mmHg 81%
    07:00 +25°C° 0 mm 3 mps 741 mmHg 77%
    08:00 +26°C° 0 mm 3 mps 741 mmHg 73%
    09:00 +27°C° 0.2 mm 3 mps 741 mmHg 68%
    10:00 +29°C° 0.2 mm 3 mps 741 mmHg 64%
    11:00 +30°C° 0.2 mm 3 mps 741 mmHg 59%
    12:00 +30°C° 0 mm 3 mps 741 mmHg 56%
    13:00 +31°C° 0 mm 3 mps 741 mmHg 53%
    14:00 +31°C° 0 mm 3 mps 741 mmHg 49%
    15:00 +31°C° 0 mm 3 mps 740 mmHg 53%
    16:00 +31°C° 0 mm 3 mps 740 mmHg 57%
    17:00 +30°C° 0 mm 3 mps 740 mmHg 61%
    18:00 +28°C° 0.1 mm 3 mps 740 mmHg 66%
    19:00 +26°C° 0.1 mm 3 mps 740 mmHg 70%
    20:00 +24°C° 0.1 mm 3 mps 740 mmHg 74%
    21:00 +24°C° 0 mm 3 mps 741 mmHg 76%
    22:00 +22°C° 0 mm 3 mps 741 mmHg 78%
    23:00 +21°C° 0 mm 3 mps 741 mmHg 79%

    24 June, Monday

    Time Temperature Precipitation Wind Pressure Humidity
    00:00 +20°C° 0 mm 3 mps 741 mmHg 81%
    01:00 +20°C° 0 mm 3 mps 741 mmHg 82%
    02:00 +19°C° 0 mm 3 mps 741 mmHg 83%
    03:00 +19°C° 0 mm 3 mps 741 mmHg 84%
    04:00 +19°C° 0 mm 3 mps 741 mmHg 85%
    05:00 +19°C° 0 mm 3 mps 741 mmHg 85%
    06:00 +20°C° 0 mm 3 mps 742 mmHg 82%
    07:00 +22°C° 0 mm 3 mps 742 mmHg 78%
    08:00 +25°C° 0 mm 3 mps 742 mmHg 74%
    09:00 +26°C° 0.3 mm 3 mps 742 mmHg 70%
    10:00 +27°C° 0.3 mm 3 mps 743 mmHg 66%
    11:00 +28°C° 0.3 mm 3 mps 743 mmHg 62%
    12:00 +29°C° 0.4 mm 3 mps 743 mmHg 61%
    13:00 +29°C° 0.4 mm 3 mps 742 mmHg 60%
    14:00 +29°C° 0.4 mm 3 mps 742 mmHg 59%
    15:00 +29°C° 1.5 mm 3 mps 742 mmHg 63%
    16:00 +28°C° 1.5 mm 3 mps 742 mmHg 68%
    17:00 +27°C° 1.5 mm 3 mps 742 mmHg 73%
    18:00 +26°C° 0.4 mm 3 mps 742 mmHg 77%
    19:00 +25°C° 0.4 mm 3 mps 742 mmHg 81%
    20:00 +24°C° 0.4 mm 3 mps 742 mmHg 85%
    21:00 +22°C° 0 mm 3 mps 743 mmHg 87%
    22:00 +21°C° 0 mm 3 mps 743 mmHg 89%
    23:00 +21°C° 0 mm 3 mps 743 mmHg 91%

    25 June, Tuesday

    Time Temperature Precipitation Wind Pressure Humidity
    00:00 +20°C° 0 mm 3 mps 743 mmHg 92%
    01:00 +20°C° 0 mm 4 mps 743 mmHg 93%
    02:00 +20°C° 0 mm 4 mps 743 mmHg 94%
    03:00 +20°C° 0 mm 4 mps 743 mmHg 95%
    04:00 +19°C° 0 mm 5 mps 743 mmHg 96%
    05:00 +19°C° 0 mm 5 mps 743 mmHg 96%
    06:00 +20°C° 0 mm 5 mps 744 mmHg 94%
    07:00 +20°C° 0 mm 5 mps 744 mmHg 93%
    08:00 +20°C° 0 mm 5 mps 744 mmHg 91%
    09:00 +22°C° 0 mm 5 mps 745 mmHg 85%
    10:00 +23°C° 0 mm 5 mps 745 mmHg 80%
    11:00 +25°C° 0 mm 5 mps 745 mmHg 75%
    12:00 +24°C° 0 mm 6 mps 745 mmHg 72%
    13:00 +26°C° 0 mm 6 mps 745 mmHg 68%
    14:00 +26°C° 0 mm 6 mps 745 mmHg 65%
    15:00 +26°C° 0 mm 6 mps 745 mmHg 66%
    16:00 +26°C° 0 mm 6 mps 745 mmHg 67%
    17:00 +24°C° 0 mm 6 mps 745 mmHg 68%
    18:00 +23°C° 0 mm 5 mps 745 mmHg 72%
    19:00 +22°C° 0 mm 4 mps 745 mmHg 77%
    20:00 +20°C° 0 mm 4 mps 745 mmHg 81%
    21:00 +19°C° 0 mm 4 mps 746 mmHg 81%
    22:00 +19°C° 0 mm 3 mps 746 mmHg 80%
    23:00 +18°C° 0 mm 3 mps 746 mmHg 79%
    Show more